Wind_Speed
6 9 11 8 5 3 1 1 5 3 5 10 12 8 5 9 5 1 1 4 6 9 10 10 11 10 9 9 9 10 10 11 11 11 12 14 15 16 17 18 20 21 21 22 23 23 23 22 22
5 7 10 10 6 2 1 8 4 5 7 10 12 11 7 8 9 5 2 4 6 9 10 11 11 11 10 10 11 12 12 12 13 14 14 15 17 18 18 19 19 20 20 20 21 21 21 21 21
6 7 10 9 9 5 3 8 2 8 10 10 11 11 6 3 7 8 6 5 6 9 10 11 11 11 11 11 12 14 15 15 17 16 17 17 17 18 18 18 18 18 19 19 19 19 19 19 19
6 8 10 11 11 6 3 9 7 8 7 10 10 8 6 6 5 7 9 6 6 8 10 10 11 10 10 11 12 13 14 15 15 16 16 16 16 16 16 16 16 16 16 16 16 17 17 17 17
6 9 9 11 12 9 4 6 6 9 13 10 10 9 6 5 7 12 10 7 7 7 8 8 9 9 9 9 10 11 11 11 12 12 12 13 12 13 13 13 13 13 13 12 13 13 14 14 14
7 10 8 9 10 7 8 11 11 12 15 14 9 10 4 4 11 11 10 9 7 8 7 7 7 8 8 9 9 9 9 9 10 9 9 10 10 11 11 12 11 11 11 11 11 11 12 12 11
7 9 8 7 5 7 4 12 10 10 13 14 8 9 3 4 9 11 11 10 9 8 8 8 8 8 7 7 8 8 8 8 8 9 9 8 8 8 9 10 10 10 10 10 10 10 10 11 10
6 5 7 3 7 5 9 14 11 6 7 9 7 7 8 4 7 9 10 10 10 10 9 9 8 8 7 7 7 7 7 7 7 7 7 7 7 7 8 8 9 9 9 9 9 9 10 10 10
4 5 5 4 9 2 11 12 10 9 7 10 9 8 8 7 7 9 9 8 8 9 9 8 8 8 8 7 7 7 7 7 6 6 6 6 6 6 6 7 8 9 8 9 9 9 10 10 11
4 6 6 1 5 3 5 10 10 9 10 12 12 11 9 9 7 9 9 8 8 8 8 9 8 8 8 7 7 7 7 7 7 7 6 6 6 6 6 6 7 7 8 9 10 9 10 10 11
4 7 5 6 6 8 8 7 11 12 15 14 13 12 8 8 7 8 9 9 9 10 9 9 9 9 8 7 7 7 7 7 7 7 7 6 6 6 5 5 7 8 9 9 10 11 11 10 10
7 5 8 11 10 13 15 16 15 16 17 15 13 13 13 8 6 5 7 9 10 9 10 10 10 9 8 8 7 7 8 8 8 8 8 7 7 7 5 6 9 10 10 11 11 11 11 11 10
8 8 10 16 18 18 19 19 19 23 21 23 22 20 14 13 11 9 8 8 10 9 10 10 11 9 9 9 8 8 8 8 8 8 8 9 8 7 7 10 11 11 11 11 11 12 11 10 9
6 9 7 7 13 16 14 11 18 23 23 25 22 26 22 18 16 15 12 8 8 11 11 11 12 11 10 10 8 9 8 9 8 8 9 9 8 8 10 12 12 12 12 12 12 12 11 10 10
4 4 6 3 1 1 6 4 7 8 17 21 24 27 26 23 21 18 15 14 11 10 13 13 13 13 11 11 10 9 9 8 8 10 10 10 10 9 11 11 12 12 13 13 12 12 11 11 11
4 2 8 5 4 6 7 6 6 7 12 14 19 23 24 22 21 18 16 16 15 13 12 15 15 13 12 11 10 9 9 10 11 12 11 9 9 10 11 12 14 14 13 14 14 13 13 13 13
3 6 13 9 6 9 10 16 17 14 17 20 20 21 20 19 21 19 19 15 15 14 14 15 16 14 13 12 11 11 11 10 11 10 9 9 10 11 13 14 14 14 14 15 14 14 14 14 14
8 13 17 12 9 7 12 20 20 12 16 25 24 25 23 21 20 19 18 17 16 15 15 16 17 17 16 15 13 11 8 7 7 9 10 11 11 13 14 14 15 15 15 16 16 15 16 15 15
12 16 17 6 8 10 16 15 4 6 9 10 15 27 27 22 18 20 21 18 15 15 14 14 16 16 17 16 13 10 9 9 9 11 13 13 13 14 14 15 15 16 16 17 17 16 16 16 16
17 18 12 8 5 13 8 3 2 9 14 18 17 10 24 23 19 18 20 18 13 9 10 12 14 16 17 17 15 14 14 14 14 13 12 13 14 14 14 14 15 16 16 16 16 17 17 17 17
10 10 9 10 10 3 4 4 3 8 11 12 12 5 13 20 19 17 22 21 16 9 10 9 11 14 16 17 18 18 18 15 12 10 10 12 14 15 15 15 16 16 16 16 17 17 18 19 19
12 7 8 10 11 3 9 2 1 6 9 7 5 7 9 15 18 20 19 22 17 12 13 10 8 12 16 17 20 20 19 17 14 14 15 15 16 17 17 17 17 17 17 16 17 19 20 20 20
9 12 14 13 11 11 7 6 5 1 3 8 8 6 4 13 18 19 19 19 18 18 16 16 14 13 13 17 20 22 22 19 17 17 17 16 16 17 18 18 18 19 19 19 19 20 20 20 20
10 10 8 7 7 3 6 6 12 3 5 10 11 10 8 6 5 10 20 20 18 19 18 16 15 15 15 17 19 22 23 21 21 19 18 18 19 19 20 21 20 20 21 22 22 23 23 22 21
5 7 2 1 0 4 7 6 3 12 7 6 10 13 13 12 9 7 5 4 11 21 27 25 21 19 20 20 20 21 24 24 24 23 22 21 21 21 21 23 23 22 23 25 26 27 26 25 24
6 6 2 3 2 2 6 7 11 14 9 5 2 2 7 12 15 14 13 11 7 5 7 17 21 20 22 23 22 23 23 25 27 26 25 25 24 24 24 26 26 27 27 29 30 31 30 29 28
4 4 4 4 5 1 4 10 19 14 12 7 4 3 6 7 10 14 17 16 12 9 6 5 10 17 22 24 25 26 26 27 27 28 29 29 28 27 27 28 30 30 31 32 34 35 34 33 32
9 7 5 4 2 2 3 13 4 15 14 11 5 4 6 9 11 13 15 19 19 17 11 9 9 10 12 15 18 22 28 28 28 29 29 30 30 31 31 32 34 35 35 36 38 38 38 38 37
7 6 7 5 4 3 3 1 4 16 13 10 6 5 9 12 14 15 17 20 23 24 21 17 15 14 15 16 16 15 17 23 29 31 29 30 32 32 34 34 37 38 39 40 41 41 41 40 40
9 8 7 5 3 3 2 4 8 8 8 6 6 9 13 15 17 19 21 23 25 26 21 20 19 19 18 18 18 18 17 19 22 27 30 31 33 33 34 36 38 40 41 42 43 43 44 43 43
Wind_Direction
245 235 227 236 257 268 337 358 202 282 343 343 333 311 267 227 219 40 276 132 119 104 101 98 96 100 108 118 127 127 120 116 117 112 109 108 106 103 101 100 99 100 102 103 103 105 106 109 107
257 229 215 219 233 227 337 160 240 292 319 330 324 313 273 248 246 247 271 157 122 109 101 98 96 98 103 113 120 120 119 119 117 114 112 107 107 107 107 105 103 101 100 102 102 105 107 106 107
265 213 201 200 221 192 127 181 255 297 314 319 320 317 282 270 262 225 191 160 122 113 110 107 106 106 109 112 112 112 114 115 115 114 113 111 111 108 107 106 105 107 107 107 109 109 109 109 109
253 196 196 204 203 200 312 246 251 280 310 313 321 316 300 259 223 190 168 163 142 125 123 123 118 115 115 116 114 114 113 112 114 115 114 114 114 114 112 111 111 110 109 112 114 112 113 113 110
232 198 187 210 205 207 306 200 236 282 308 300 316 318 297 242 185 162 166 166 164 141 142 136 132 134 130 123 120 118 117 118 116 119 121 120 120 119 120 118 117 118 119 120 118 116 115 112 112
202 184 187 212 223 249 278 235 244 270 292 302 308 328 306 191 174 170 169 174 177 164 160 152 148 148 147 143 136 129 125 126 127 125 125 126 129 129 130 129 130 130 131 130 126 122 122 122 124
196 195 186 204 240 347 301 196 239 268 287 291 299 348 328 184 186 179 177 177 184 180 177 172 169 163 165 157 151 148 143 141 138 139 139 136 137 139 141 141 141 140 139 134 136 138 137 137 133
183 196 187 219 345 13 163 184 207 242 296 287 303 337 337 255 214 198 189 187 188 191 189 185 182 176 178 175 168 162 159 156 153 154 151 148 149 149 148 148 148 150 150 147 148 145 145 144 142
154 188 176 62 35 130 179 198 193 229 259 282 287 306 321 303 242 221 210 206 202 203 199 194 191 188 187 185 181 179 175 173 170 170 167 165 158 159 155 161 158 157 157 157 154 153 151 152 148
163 192 168 103 16 296 203 208 216 234 251 267 271 285 295 305 266 238 223 213 209 214 214 207 198 195 197 192 191 192 189 187 187 184 183 179 176 173 170 184 172 171 173 173 163 163 165 160 150
196 208 236 204 286 291 237 220 228 241 262 273 263 254 275 290 280 239 229 222 213 217 218 218 207 201 199 200 200 201 203 200 200 197 198 195 193 193 189 199 200 191 189 183 175 173 170 160 153
260 225 271 237 253 265 270 251 241 251 265 247 251 250 254 256 290 272 242 233 229 224 219 220 219 211 208 216 210 210 212 209 209 205 205 208 205 208 202 223 217 204 194 189 180 176 168 166 158
268 275 250 241 247 256 263 262 260 246 255 265 256 255 253 258 261 283 275 251 246 239 233 221 219 219 220 228 219 217 216 214 215 212 210 213 211 217 226 231 220 208 197 191 182 178 172 166 159
297 303 305 263 259 270 275 260 254 256 256 254 249 251 257 257 263 265 275 283 263 252 245 230 222 218 219 226 226 223 223 220 217 221 223 215 215 220 231 229 220 208 199 192 185 179 172 168 172
336 2 331 302 216 190 304 328 289 220 225 230 239 242 252 260 260 262 265 267 272 261 248 242 228 224 220 220 220 218 224 229 226 227 224 221 218 227 236 234 230 216 205 195 189 184 179 177 177
303 3 11 357 291 317 299 341 9 245 250 244 239 245 249 253 259 263 260 257 260 262 255 244 238 232 227 224 225 222 224 230 228 225 218 221 228 235 240 237 230 218 209 202 196 192 188 184 185
58 337 330 328 347 277 296 319 329 314 263 248 238 240 249 246 248 250 254 254 255 258 252 240 237 235 235 231 229 228 225 227 231 231 228 229 233 237 241 238 232 223 214 208 203 200 196 192 189
318 321 318 322 325 306 284 312 329 296 258 250 245 241 237 242 248 255 257 256 260 257 251 239 229 229 232 235 234 234 236 237 243 243 239 235 235 237 239 238 232 225 217 211 208 205 202 195 190
312 308 309 302 306 302 312 314 329 305 311 305 281 252 244 239 253 258 261 255 252 257 255 247 229 228 233 240 240 243 244 239 236 235 232 231 233 235 236 239 233 227 220 214 210 206 201 194 188
303 296 296 297 283 314 320 137 294 317 327 330 335 263 227 232 236 246 242 245 247 267 280 253 232 227 233 239 240 238 237 234 234 239 240 238 234 234 237 239 235 228 223 215 210 205 199 190 185
299 295 299 305 318 328 135 72 343 358 333 309 308 297 217 220 231 237 243 248 246 266 299 277 242 232 234 236 238 238 240 242 249 262 254 243 235 233 234 239 237 230 223 215 207 201 195 191 186
300 292 296 300 313 273 222 219 7 -0 352 13 8 269 246 236 240 240 242 241 245 256 266 272 260 244 236 234 238 240 241 238 240 240 240 242 235 229 230 234 237 232 223 217 211 204 201 196 195
291 295 289 284 286 296 241 193 176 281 339 52 54 36 326 257 250 255 258 245 246 247 263 263 259 256 250 241 236 239 241 243 240 240 243 244 243 238 233 234 236 235 227 221 215 210 209 206 205
278 301 302 261 252 277 201 195 189 156 90 76 68 69 60 36 346 277 260 264 266 259 260 259 266 271 270 261 248 242 242 241 240 241 243 244 242 237 232 231 233 234 231 227 223 218 215 214 214
295 318 296 334 349 211 151 211 165 170 155 108 79 74 72 69 58 28 358 318 275 265 266 264 262 268 272 267 255 245 241 240 239 240 240 240 241 240 237 233 229 231 233 231 231 228 223 221 221
293 308 271 271 219 272 175 153 144 170 175 180 157 73 49 50 50 49 39 24 18 5 278 259 256 249 257 263 258 252 246 243 240 239 241 241 241 240 237 235 230 227 229 231 231 231 229 228 227
287 269 263 280 263 264 136 122 147 170 191 205 223 267 299 336 355 6 16 21 13 360 345 311 280 268 264 260 250 248 245 242 241 240 240 239 239 238 235 235 234 230 229 232 233 233 233 233 233
265 264 269 243 238 231 109 149 124 194 210 221 228 270 307 331 343 346 349 359 -0 351 334 317 299 286 286 290 286 273 254 246 243 243 244 246 245 244 241 235 233 232 230 231 234 235 235 236 236
282 257 239 251 253 182 150 108 331 181 206 228 251 299 316 324 334 338 340 341 348 347 335 320 305 292 285 285 287 286 280 263 250 245 244 244 246 244 246 243 239 235 233 232 234 236 237 239 240
258 234 227 230 223 239 136 125 153 167 188 221 272 298 311 317 323 329 331 334 334 337 328 311 303 298 294 288 281 277 274 268 261 256 251 246 247 247 247 246 243 242 239 236 236 236 238 239 241
Height
3158 3158 3159 3162 3166 3162 3161 3162 3161 3162 3161 3160 3159 3158 3159 3158 3159 3163 3158 3158 3159 3158 3158 3158 3158 3158 3159 3160 3161 3161 3161 3162 3163 3162 3162 3162 3163 3162 3162 3163 3162 3162 3163 3164 3164 3165 3165 3166 3167
3156 3157 3158 3159 3162 3161 3161 3160 3161 3161 3161 3159 3158 3157 3157 3158 3158 3159 3159 3159 3160 3159 3159 3159 3160 3160 3161 3161 3162 3163 3163 3164 3165 3164 3165 3165 3165 3165 3165 3165 3165 3165 3165 3166 3166 3167 3168 3169 3170
3154 3155 3157 3158 3159 3160 3160 3160 3160 3160 3159 3159 3157 3156 3157 3157 3157 3158 3159 3160 3160 3161 3161 3162 3163 3163 3164 3164 3164 3165 3165 3166 3166 3168 3167 3168 3168 3167 3167 3167 3168 3169 3169 3169 3170 3170 3170 3171 3172
3152 3154 3156 3155 3156 3159 3159 3159 3159 3159 3158 3159 3157 3156 3156 3156 3156 3157 3159 3160 3161 3162 3163 3164 3164 3165 3166 3167 3167 3167 3168 3168 3169 3169 3170 3170 3170 3170 3170 3170 3171 3171 3171 3171 3173 3173 3173 3174 3174
3151 3152 3153 3154 3155 3157 3158 3158 3158 3158 3158 3157 3157 3156 3156 3155 3156 3158 3159 3161 3162 3163 3165 3165 3166 3167 3168 3168 3169 3169 3170 3170 3170 3171 3172 3172 3172 3172 3173 3172 3172 3173 3173 3174 3174 3174 3175 3175 3176
3150 3151 3153 3152 3153 3155 3156 3157 3158 3158 3157 3156 3156 3155 3155 3155 3156 3158 3160 3161 3162 3163 3165 3166 3167 3168 3169 3170 3170 3171 3171 3172 3173 3173 3173 3173 3174 3175 3175 3175 3174 3175 3176 3176 3176 3176 3177 3177 3178
3150 3150 3151 3152 3153 3154 3153 3154 3156 3157 3156 3155 3155 3155 3155 3155 3156 3157 3159 3161 3162 3164 3165 3167 3168 3169 3170 3171 3171 3172 3173 3174 3174 3175 3175 3175 3175 3176 3177 3177 3176 3176 3177 3177 3178 3178 3179 3179 3179
3149 3151 3151 3153 3154 3154 3154 3155 3155 3156 3155 3154 3155 3154 3155 3154 3155 3156 3158 3160 3162 3164 3165 3167 3168 3169 3170 3171 3172 3173 3173 3174 3175 3175 3176 3176 3177 3177 3177 3177 3177 3177 3178 3179 3179 3179 3180 3180 3180
3149 3151 3151 3153 3152 3153 3154 3155 3155 3155 3154 3154 3155 3154 3155 3153 3154 3155 3157 3159 3161 3163 3165 3166 3167 3168 3170 3171 3172 3173 3173 3174 3175 3176 3177 3177 3177 3178 3178 3179 3178 3178 3178 3179 3180 3180 3180 3181 3182
3148 3149 3151 3152 3152 3153 3153 3154 3154 3154 3153 3153 3154 3154 3153 3153 3153 3154 3156 3158 3160 3161 3163 3165 3166 3168 3169 3170 3171 3172 3173 3174 3176 3176 3177 3177 3178 3178 3178 3179 3178 3178 3179 3180 3180 3180 3182 3182 3182
3148 3149 3149 3150 3150 3150 3152 3152 3152 3151 3152 3153 3153 3152 3152 3152 3152 3153 3155 3157 3159 3160 3161 3163 3165 3167 3168 3169 3170 3172 3173 3174 3175 3176 3177 3177 3177 3178 3178 3179 3179 3179 3179 3180 3180 3181 3182 3183 3183
3147 3147 3147 3148 3148 3147 3148 3149 3149 3149 3150 3149 3149 3150 3150 3151 3151 3151 3153 3155 3157 3159 3160 3161 3163 3165 3166 3168 3169 3170 3171 3172 3174 3175 3176 3177 3177 3178 3178 3179 3179 3179 3179 3180 3181 3181 3182 3183 3183
3145 3145 3145 3145 3145 3146 3145 3144 3145 3145 3148 3147 3147 3146 3148 3148 3150 3150 3151 3153 3154 3157 3159 3161 3162 3164 3165 3166 3168 3169 3170 3171 3173 3174 3175 3176 3177 3177 3178 3179 3179 3179 3179 3180 3180 3181 3182 3182 3182
3144 3144 3143 3143 3142 3141 3141 3142 3140 3142 3145 3143 3143 3143 3144 3145 3147 3148 3149 3151 3152 3153 3156 3158 3161 3162 3164 3165 3166 3167 3169 3170 3171 3172 3174 3175 3176 3177 3178 3178 3178 3178 3179 3179 3180 3181 3181 3182 3183
3143 3143 3142 3142 3141 3140 3139 3139 3138 3138 3138 3138 3138 3139 3140 3142 3143 3145 3148 3148 3150 3152 3152 3155 3157 3160 3162 3164 3165 3166 3167 3168 3169 3171 3172 3173 3175 3175 3176 3177 3177 3177 3178 3179 3179 3180 3180 3182 3183
3143 3143 3142 3141 3141 3140 3139 3137 3136 3137 3135 3135 3135 3134 3135 3137 3139 3142 3144 3145 3148 3150 3151 3152 3154 3156 3159 3161 3162 3163 3165 3166 3168 3170 3170 3171 3172 3173 3174 3175 3176 3176 3177 3178 3178 3179 3180 3181 3182
3142 3142 3141 3141 3139 3139 3138 3135 3136 3134 3131 3130 3131 3131 3131 3133 3134 3137 3140 3142 3144 3147 3148 3150 3151 3153 3155 3157 3159 3161 3163 3165 3166 3167 3168 3169 3170 3172 3173 3174 3174 3175 3176 3176 3177 3178 3179 3180 3181
3141 3140 3139 3139 3138 3136 3136 3133 3132 3128 3126 3126 3126 3127 3126 3128 3131 3134 3136 3138 3140 3143 3145 3146 3148 3150 3152 3154 3156 3159 3161 3163 3164 3165 3166 3167 3168 3170 3171 3172 3172 3173 3174 3175 3176 3177 3178 3179 3180
3140 3138 3137 3137 3136 3135 3135 3131 3130 3127 3126 3124 3122 3121 3123 3125 3128 3129 3132 3133 3135 3138 3140 3142 3145 3147 3149 3151 3154 3156 3158 3159 3161 3162 3163 3164 3165 3167 3168 3169 3170 3171 3172 3173 3174 3175 3176 3177 3178
3138 3136 3135 3135 3135 3135 3131 3130 3129 3127 3124 3121 3117 3114 3118 3122 3123 3124 3127 3128 3130 3133 3136 3138 3141 3144 3146 3148 3151 3153 3154 3156 3157 3158 3160 3161 3162 3164 3165 3166 3167 3168 3169 3170 3171 3172 3173 3175 3177
3135 3134 3133 3134 3132 3133 3131 3130 3129 3128 3126 3122 3118 3115 3116 3118 3119 3121 3122 3124 3127 3129 3132 3134 3137 3140 3143 3145 3146 3149 3150 3153 3155 3156 3157 3157 3158 3160 3161 3162 3163 3165 3166 3168 3168 3170 3171 3173 3175
3133 3132 3132 3131 3131 3131 3130 3131 3129 3128 3126 3122 3119 3116 3115 3116 3117 3117 3118 3120 3123 3126 3128 3131 3133 3136 3138 3140 3142 3144 3147 3148 3151 3151 3152 3152 3154 3155 3157 3158 3160 3162 3163 3164 3166 3167 3169 3171 3172
3133 3131 3129 3128 3128 3128 3125 3129 3128 3128 3127 3124 3121 3118 3116 3115 3115 3116 3117 3118 3120 3121 3125 3128 3129 3131 3133 3135 3137 3138 3141 3144 3145 3146 3147 3148 3150 3151 3153 3154 3156 3158 3160 3161 3163 3165 3167 3168 3169
3130 3129 3126 3124 3126 3126 3123 3126 3127 3127 3127 3126 3124 3121 3119 3117 3115 3114 3115 3117 3118 3119 3121 3123 3126 3127 3129 3130 3131 3132 3134 3137 3139 3140 3142 3143 3144 3145 3147 3149 3151 3153 3156 3158 3160 3161 3163 3165 3166
3129 3128 3126 3126 3126 3124 3122 3125 3125 3127 3127 3127 3126 3124 3122 3119 3117 3115 3114 3114 3114 3115 3116 3118 3120 3122 3123 3123 3124 3126 3128 3129 3131 3134 3135 3137 3138 3140 3141 3142 3145 3147 3150 3153 3155 3156 3158 3160 3161
3128 3128 3127 3126 3127 3123 3123 3123 3127 3126 3127 3126 3126 3125 3124 3122 3119 3117 3116 3114 3114 3113 3113 3113 3114 3115 3116 3116 3117 3117 3119 3121 3123 3126 3127 3129 3131 3133 3134 3135 3137 3140 3142 3145 3147 3149 3152 3154 3156
3128 3127 3127 3125 3123 3123 3124 3126 3127 3127 3126 3124 3124 3124 3123 3121 3120 3119 3117 3116 3114 3113 3112 3112 3111 3111 3110 3109 3108 3109 3111 3113 3115 3117 3119 3121 3123 3125 3127 3128 3130 3132 3134 3137 3138 3140 3144 3146 3148
3126 3127 3126 3124 3123 3122 3122 3124 3126 3126 3125 3123 3123 3122 3121 3120 3120 3119 3117 3115 3114 3112 3111 3110 3108 3107 3106 3106 3105 3104 3105 3105 3106 3108 3111 3113 3116 3117 3118 3119 3120 3123 3125 3127 3129 3132 3135 3137 3140
3124 3123 3123 3123 3121 3120 3123 3125 3121 3123 3123 3122 3121 3120 3118 3117 3117 3116 3114 3114 3112 3111 3109 3108 3106 3104 3103 3101 3100 3100 3100 3100 3100 3100 3102 3104 3105 3107 3109 3111 3112 3113 3115 3117 3119 3122 3125 3128 3130
3121 3120 3119 3119 3119 3118 3118 3124 3122 3121 3119 3118 3118 3116 3114 3113 3113 3113 3112 3111 3110 3109 3108 3106 3103 3101 3099 3097 3096 3095 3094 3093 3094 3095 3095 3095 3096 3097 3100 3101 3103 3104 3106 3108 3109 3112 3114 3117 3119